FW5810 Weather Reports


Display with metric or nautical units.
time (UTC)temp
F
wind
direction
speed
MPH
gust
MPH
rain 1hr
in
rain 24hr
in
rain mn
in
humidity
%
barometer
mb
20260902225632 88 218 4.0 4.0 0.00 0.00 0.00 60 1014.9
20260902225131 88 227 3.0 4.0 0.00 0.00 0.00 61 1014.9
20260902224630 88 269 4.0 5.0 0.00 0.00 0.00 59 1014.7
20260902224126 89 221 2.0 8.0 0.00 0.00 0.00 58 1014.7
20260902223622 90 95 1.0 3.0 0.00 0.00 0.00 59 1014.9
20260902223121 90 270 2.0 3.0 0.00 0.00 0.00 58 1014.9
20260902222622 90 311 1.0 3.0 0.00 0.00 0.00 57 1014.8
20260902222119 91 248 1.0 4.0 0.00 0.00 0.00 56 1014.8
20260902221613 91 195 1.0 4.0 0.00 0.00 0.00 56 1014.7
20260902221108 91 259 1.0 1.0 0.00 0.00 0.00 56 1014.5
20260902220604 91 259 4.0 5.0 0.00 0.00 0.00 55 1014.6
20260902220058 91 227 2.0 5.0 0.00 0.00 0.00 56 1014.6
20260902215554 91 258 3.0 5.0 0.00 0.00 0.00 56 1014.5
20260902215050 91 339 5.0 7.0 0.00 0.00 0.00 56 1014.4
20260902214550 91 188 3.0 7.0 0.00 0.00 0.00 56 1014.5
20260902214049 92 244 2.0 5.0 0.00 0.00 0.00 57 1014.5
20260902213545 92 240 3.0 4.0 0.00 0.00 0.00 54 1014.5
20260902213044 92 324 1.0 3.0 0.00 0.00 0.00 56 1014.6
20260902212539 92 288 2.0 7.0 0.00 0.00 0.00 57 1014.7
20260902212036 92 248 3.0 8.0 0.00 0.00 0.00 55 1014.7
20260902211532 92 212 2.0 7.0 0.00 0.00 0.00 55 1014.7
20260902211027 92 278 2.0 3.0 0.00 0.00 0.00 53 1015.0
20260902210527 93 329 2.0 4.0 0.00 0.00 0.00 54 1015.0
20260902210026 92 280 4.0 10.0 0.00 0.00 0.00 52 1015.0
20260902205520 93 251 9.0 12.0 0.00 0.00 0.00 51 1015.4
20260902205016 93 190 7.0 8.0 0.00 0.00 0.00 51 1015.4
20260902204515 91 207 3.0 10.0 0.00 0.00 0.00 54 1015.3
20260902204011 93 234 4.0 5.0 0.00 0.00 0.00 52 1015.1
20260902203506 93 115 0.0 7.0 0.00 0.00 0.00 52 1015.0
20260902203005 93 309 3.0 4.0 0.00 0.00 0.00 51 1015.4
20260902202501 93 226 3.0 5.0 0.00 0.00 0.00 55 1015.2
20260902201958 93 200 4.0 7.0 0.00 0.00 0.00 53 1015.3
20260902201457 93 246 3.0 10.0 0.00 0.00 0.00 51 1015.4
20260902200952 94 226 4.0 12.0 0.00 0.00 0.00 50 1015.3
20260902200447 94 281 4.0 7.0 0.00 0.00 0.00 51 1015.4
20260902195943 93 171 4.0 7.0 0.00 0.00 0.00 51 1015.5
20260902195438 93 140 2.0 8.0 0.00 0.00 0.00 53 1015.6
20260902194938 94 248 5.0 10.0 0.00 0.00 0.00 50 1015.6
20260902194437 93 191 3.0 4.0 0.00 0.00 0.00 49 1015.4
20260902193932 94 143 5.0 5.0 0.00 0.00 0.00 49 1015.7
20260902193428 95 160 2.0 4.0 0.00 0.00 0.00 48 1015.7
20260902192927 94 213 2.0 4.0 0.00 0.00 0.00 51 1015.7
20260902192426 94 65 2.0 4.0 0.00 0.00 0.00 48 1015.7
20260902191925 93 211 2.0 4.0 0.00 0.00 0.00 48 1015.8
20260902191421 94 276 5.0 8.0 0.00 0.00 0.00 49 1015.9
20260902190916 94 241 1.0 3.0 0.00 0.00 0.00 49 1015.9
20260902190411 94 282 5.0 5.0 0.00 0.00 0.00 49 1016.0
20260902185906 93 312 1.0 1.0 0.00 0.00 0.00 53 1016.1
20260902185402 93 248 4.0 7.0 0.00 0.00 0.00 49 1016.0
20260902184857 93 217 5.0 5.0 0.00 0.00 0.00 51 1016.1
20260902184352 93 246 6.0 7.0 0.00 0.00 0.00 49 1016.2
20260902183848 93 349 1.0 4.0 0.00 0.00 0.00 52 1016.4
20260902183344 92 221 3.0 4.0 0.00 0.00 0.00 53 1016.4
20260902182834 91 257 4.0 7.0 0.00 0.00 0.00 53 1016.1
20260902182330 92 250 6.0 8.0 0.00 0.00 0.00 52 1016.2
20260902181826 91 103 2.0 7.0 0.00 0.00 0.00 55 1016.3
20260902181322 91 259 3.0 5.0 0.00 0.00 0.00 55 1016.5
20260902180816 92 185 5.0 7.0 0.00 0.00 0.00 54 1016.4
20260902180312 93 327 1.0 4.0 0.00 0.00 0.00 54 1016.5
20260902175807 91 211 5.0 5.0 0.00 0.00 0.00 54 1016.9
20260902175307 91 266 7.0 8.0 0.00 0.00 0.00 54 1017.0
20260902174757 91 288 2.0 5.0 0.00 0.00 0.00 59 1017.1
20260902174253 91 178 3.0 8.0 0.00 0.00 0.00 59 1017.1
20260902173749 92 252 4.0 4.0 0.00 0.00 0.00 56 1016.9
20260902173243 90 113 2.0 3.0 0.00 0.00 0.00 62 1017.1
20260902172737 91 154 3.0 4.0 0.00 0.00 0.00 62 1017.2
20260902172232 90 217 1.0 3.0 0.00 0.00 0.00 64 1017.2
20260902171727 89 278 3.0 5.0 0.00 0.00 0.00 62 1017.4
20260902171222 89 269 3.0 5.0 0.00 0.00 0.00 63 1017.4
20260902170718 89 228 3.0 5.0 0.00 0.00 0.00 63 1017.3
20260902170213 88 196 1.0 5.0 0.00 0.00 0.00 64 1017.4
20260902165708 89 268 5.0 7.0 0.00 0.00 0.00 62 1017.2
20260902165203 89 118 3.0 7.0 0.00 0.00 0.00 67 1017.3
20260902164658 89 261 1.0 1.0 0.00 0.00 0.00 64 1017.3
20260902164156 89 173 1.0 7.0 0.00 0.00 0.00 64 1017.2
20260902163652 88 246 4.0 8.0 0.00 0.00 0.00 64 1017.3
20260902163152 88 221 2.0 4.0 0.00 0.00 0.00 66 1017.4
20260902162650 89 244 5.0 7.0 0.00 0.00 0.00 65 1017.5
20260902162145 88 184 3.0 8.0 0.00 0.00 0.00 64 1017.4
20260902161640 88 281 5.0 5.0 0.00 0.00 0.00 64 1017.5
20260902161136 87 309 1.0 3.0 0.00 0.00 0.00 65 1017.6
20260902160632 87 266 3.0 4.0 0.00 0.00 0.00 66 1017.6
20260902160127 88 276 7.0 8.0 0.00 0.00 0.00 65 1017.6
20260902155625 87 256 3.0 4.0 0.00 0.00 0.00 66 1017.8
20260902155124 87 220 2.0 4.0 0.00 0.00 0.00 68 1017.7
20260902154619 88 301 5.0 5.0 0.00 0.00 0.00 65 1017.9
20260902154114 87 237 2.0 5.0 0.00 0.00 0.00 67 1017.9
20260902153613 87 121 1.0 3.0 0.00 0.00 0.00 67 1017.7
20260902153109 86 262 5.0 5.0 0.00 0.00 0.00 68 1017.6
20260902152605 86 267 4.0 4.0 0.00 0.00 0.00 71 1017.9
20260902152100 87 239 5.0 8.0 0.00 0.00 0.00 69 1017.8
20260902151556 86 65 0.0 1.0 0.00 0.00 0.00 70 1017.8
20260902151055 86 208 3.0 5.0 0.00 0.00 0.00 69 1017.8
20260902150550 85 280 2.0 5.0 0.00 0.00 0.00 70 1017.8
20260902150046 85 330 2.0 4.0 0.00 0.00 0.00 71 1017.6
20260902145541 84 249 0.0 3.0 0.00 0.00 0.00 73 1017.9
20260902145040 83 314 2.0 4.0 0.00 0.00 0.00 74 1017.6
20260902144537 83 264 4.0 7.0 0.00 0.00 0.00 74 1017.6
20260902144037 83 250 3.0 3.0 0.00 0.00 0.00 75 1017.6
20260902143532 84 34 1.0 1.0 0.00 0.00 0.00 74 1017.7
20260902143028 84 223 2.0 7.0 0.00 0.00 0.00 75 1017.6
20260902142523 83 273 3.0 4.0 0.00 0.00 0.00 75 1017.5
20260902142019 83 213 4.0 5.0 0.00 0.00 0.00 75 1017.4
20260902141518 83 281 5.0 5.0 0.00 0.00 0.00 75 1017.6
20260902141014 82 235 2.0 8.0 0.00 0.00 0.00 76 1017.4
20260902140508 82 355 4.0 7.0 0.00 0.00 0.00 77 1017.4
20260902140003 82 115 1.0 4.0 0.00 0.00 0.00 79 1017.4
20260902135458 82 105 1.0 4.0 0.00 0.00 0.00 80 1017.4
20260902134958 81 193 1.0 5.0 0.00 0.00 0.00 81 1017.5
20260902134454 80 267 4.0 5.0 0.00 0.00 0.00 81 1017.3
20260902133953 80 139 3.0 3.0 0.00 0.00 0.00 82 1017.2
20260902133448 80 234 2.0 7.0 0.00 0.00 0.00 83 1017.3
20260902132943 79 113 2.0 5.0 0.00 0.00 0.00 84 1017.4
20260902132438 79 243 2.0 5.0 0.00 0.00 0.00 84 1017.2
20260902131933 79 184 2.0 7.0 0.00 0.00 0.00 84 1017.4
20260902131430 78 229 1.0 4.0 0.00 0.00 0.00 86 1017.4
20260902130930 78 252 3.0 4.0 0.00 0.00 0.00 86 1017.3
20260902130426 78 287 3.0 4.0 0.00 0.00 0.00 87 1017.4
20260902125925 77 107 1.0 1.0 0.00 0.00 0.00 88 1017.4
20260902125422 77 276 2.0 3.0 0.00 0.00 0.00 87 1017.4
20260902124917 77 106 1.0 1.0 0.00 0.00 0.00 88 1017.3
20260902124413 76 306 0.0 3.0 0.00 0.00 0.00 90 1017.5
20260902123908 75 147 0.0 0.0 0.00 0.00 0.00 92 1017.5
20260902123405 75 152 2.0 3.0 0.00 0.00 0.00 93 1017.5
20260902122903 75 232 0.0 3.0 0.00 0.00 0.00 93 1017.5
20260902122359 74 233 0.0 3.0 0.00 0.00 0.00 93 1017.4
20260902121854 74 232 1.0 1.0 0.00 0.00 0.00 95 1017.4
20260902121348 73 234 0.0 1.0 0.00 0.00 0.00 96 1017.3
20260902120843 73 230 1.0 1.0 0.00 0.00 0.00 96 1017.1
20260902120340 73 230 0.0 1.0 0.00 0.00 0.00 97 1017.4
20260902115834 73 230 0.0 1.0 0.00 0.00 0.00 97 1017.3
20260902115331 73 230 0.0 0.0 0.00 0.00 0.00 97 1017.3
20260902114827 73 230 0.0 1.0 0.00 0.00 0.00 98 1017.1
20260902114323 72 229 1.0 1.0 0.00 0.00 0.00 98 1016.9
20260902113822 72 206 0.0 0.0 0.00 0.00 0.00 98 1016.7
20260902113317 72 222 0.0 1.0 0.00 0.00 0.00 98 1016.6
20260902112812 72 222 1.0 3.0 0.00 0.00 0.00 98 1016.6
20260902112309 72 230 2.0 3.0 0.00 0.00 0.00 98 1016.7
20260902111803 72 227 1.0 1.0 0.00 0.00 0.00 98 1016.5
20260902111300 72 227 0.0 1.0 0.00 0.00 0.00 98 1016.5
20260902110755 72 227 0.0 0.0 0.00 0.00 0.00 98 1016.4
20260902110251 72 227 0.0 0.0 0.00 0.00 0.00 98 1016.7
20260902105751 72 227 0.0 0.0 0.00 0.00 0.00 98 1016.6
20260902105246 72 227 0.0 0.0 0.00 0.00 0.00 98 1016.6
20260902104742 72 227 0.0 1.0 0.00 0.00 0.00 98 1016.5
20260902104237 72 226 1.0 0.0 0.00 0.00 0.00 98 1016.3
20260902103736 72 225 0.0 1.0 0.00 0.00 0.00 98 1016.3
20260902103231 72 225 1.0 1.0 0.00 0.00 0.00 98 1016.4
20260902102727 72 221 0.0 1.0 0.00 0.00 0.00 98 1016.3
20260902102224 73 219 0.0 1.0 0.00 0.00 0.00 98 1016.4
20260902101719 72 219 1.0 1.0 0.00 0.00 0.00 98 1016.3
20260902101214 72 218 0.0 3.0 0.00 0.00 0.00 98 1016.4
20260902100713 72 221 1.0 1.0 0.00 0.00 0.00 98 1016.2
20260902100209 73 228 1.0 1.0 0.00 0.00 0.00 98 1016.4
20260902095708 72 240 1.0 4.0 0.00 0.00 0.00 98 1016.4
20260902095202 72 239 1.0 3.0 0.00 0.00 0.00 98 1016.4
20260902094657 72 198 1.0 4.0 0.00 0.00 0.00 99 1016.5
20260902094154 72 246 1.0 1.0 0.00 0.00 0.00 98 1016.5
20260902093653 72 225 0.0 1.0 0.00 0.00 0.00 98 1016.4
20260902093148 72 233 0.0 3.0 0.00 0.00 0.00 99 1016.6
20260902092643 72 245 0.0 3.0 0.00 0.00 0.00 98 1016.6
20260902092142 72 218 0.0 1.0 0.00 0.00 0.00 98 1016.6
20260902091637 72 237 1.0 1.0 0.00 0.00 0.00 99 1016.9
20260902091134 71 237 0.0 1.0 0.00 0.00 0.00 98 1017.0
20260902090629 71 237 1.0 1.0 0.00 0.00 0.00 99 1016.9
20260902090128 71 155 0.0 0.0 0.00 0.00 0.00 98 1016.7
20260902085624 71 155 0.0 0.0 0.00 0.00 0.00 98 1016.7
20260902085118 71 155 0.0 0.0 0.00 0.00 0.00 98 1016.6
20260902084615 71 155 0.0 0.0 0.00 0.00 0.00 98 1016.6
20260902084111 71 155 0.0 0.0 0.00 0.00 0.00 98 1016.7
20260902083605 71 155 0.0 0.0 0.00 0.00 0.00 98 1016.7
20260902083105 71 155 0.0 1.0 0.00 0.00 0.00 98 1016.6
20260902082601 71 155 0.0 0.0 0.00 0.00 0.00 98 1016.5
20260902082057 71 155 0.0 0.0 0.00 0.00 0.00 98 1016.6
20260902081554 71 155 0.0 0.0 0.00 0.00 0.00 98 1016.7
20260902081053 71 155 0.0 0.0 0.00 0.00 0.00 98 1016.6
20260902080548 71 155 0.0 0.0 0.00 0.00 0.00 98 1016.4
20260902080045 71 155 0.0 0.0 0.00 0.00 0.00 98 1016.5
20260902075544 71 155 0.0 0.0 0.00 0.00 0.00 98 1016.5
20260902075040 71 155 0.0 0.0 0.00 0.00 0.00 98 1016.6
20260902074536 71 155 0.0 0.0 0.00 0.00 0.00 98 1016.6
20260902074031 71 155 0.0 0.0 0.00 0.00 0.00 98 1016.6
20260902073526 71 155 0.0 0.0 0.00 0.00 0.00 98 1016.5
20260902073023 71 155 0.0 0.0 0.00 0.00 0.00 98 1016.7
20260902072518 72 155 0.0 0.0 0.00 0.00 0.00 98 1016.6
20260902072015 72 155 0.0 0.0 0.00 0.00 0.00 98 1016.5
20260902071514 71 155 0.0 0.0 0.00 0.00 0.00 97 1016.7
20260902071011 72 155 1.0 1.0 0.00 0.00 0.00 97 1016.6
20260902070506 72 155 0.0 0.0 0.00 0.00 0.00 97 1017.0
20260902070007 72 155 0.0 0.0 0.00 0.00 0.00 97 1016.9
20260902065500 72 157 0.0 0.0 0.00 0.00 0.00 97 1017.0
20260902064955 72 157 0.0 0.0 0.00 0.00 0.00 97 1016.9
20260902064450 71 241 0.0 0.0 0.00 0.00 0.00 97 1016.9
20260902063946 71 241 0.0 0.0 0.00 0.00 0.00 97 1017.0
20260902063445 72 241 0.0 1.0 0.00 0.00 0.00 97 1017.1
20260902062941 72 241 0.0 0.0 0.00 0.00 0.00 97 1016.9
20260902062440 72 241 0.0 0.0 0.00 0.00 0.00 97 1017.1
20260902061935 71 241 0.0 0.0 0.00 0.00 0.00 97 1017.0
20260902061430 72 241 0.0 0.0 0.00 0.00 0.00 97 1017.0
20260902060926 72 241 0.0 1.0 0.00 0.00 0.00 97 1017.1
20260902060422 72 241 0.0 0.0 0.00 0.00 0.00 97 1016.9
20260902055918 72 241 0.0 1.0 0.00 0.00 0.00 97 1017.0
20260902055414 72 241 0.0 0.0 0.00 0.00 0.00 97 1017.1
20260902054909 72 241 0.0 0.0 0.00 0.00 0.00 97 1016.9
20260902054404 72 241 0.0 0.0 0.00 0.00 0.00 97 1017.1
20260902053859 72 241 0.0 0.0 0.00 0.00 0.00 97 1017.0
20260902053354 72 241 0.0 1.0 0.00 0.00 0.00 96 1017.1
20260902052853 72 241 0.0 0.0 0.00 0.00 0.00 96 1016.9
20260902052349 72 241 0.0 0.0 0.00 0.00 0.00 96 1016.5
20260902051843 72 241 0.0 0.0 0.00 0.00 0.00 96 1016.7
20260902051337 72 241 0.0 0.0 0.00 0.00 0.00 96 1016.7
20260902050832 72 241 0.0 1.0 0.00 0.00 0.00 96 1016.6
20260902050331 72 241 0.0 0.0 0.00 0.00 0.00 96 1016.5
20260902045826 73 241 0.0 0.0 0.00 0.00 0.00 95 1016.5
20260902045322 73 241 0.0 0.0 0.00 0.00 0.00 95 1016.5
20260902044819 73 241 0.0 0.0 0.00 0.00 0.00 95 1016.3
20260902044314 73 241 0.0 0.0 0.00 0.00 0.00 95 1016.6
20260902043814 73 241 0.0 0.0 0.00 0.00 0.00 95 1016.4
20260902043309 73 241 0.0 0.0 0.00 0.00 0.00 94 1016.6
20260902042809 73 241 0.0 0.0 0.00 0.00 0.00 94 1016.4
20260902042308 73 241 0.0 1.0 0.00 0.00 0.00 94 1016.6
20260902041759 73 241 1.0 3.0 0.00 0.00 0.00 93 1016.5
20260902041259 74 242 1.0 1.0 0.00 0.00 0.00 93 1016.5
20260902040758 74 241 0.0 1.0 0.00 0.00 0.00 92 1016.6
20260902040254 75 241 0.0 0.0 0.00 0.00 0.00 92 1016.4
20260902035752 75 242 1.0 1.0 0.00 0.00 0.00 92 1016.5
20260902035248 74 228 1.0 3.0 0.00 0.00 0.00 93 1016.5
20260902034746 74 270 0.0 1.0 0.00 0.00 0.00 93 1016.5
20260902034242 74 271 1.0 1.0 0.00 0.00 0.00 92 1016.5
20260902033739 74 271 1.0 1.0 0.00 0.00 0.00 92 1016.3
20260902033235 75 271 0.0 0.0 0.00 0.00 0.00 92 1016.4
20260902032733 75 271 0.0 1.0 0.00 0.00 0.00 90 1016.2
20260902032229 75 271 1.0 1.0 0.00 0.00 0.00 89 1016.4
20260902031723 75 270 2.0 4.0 0.00 0.00 0.00 90 1016.4
20260902031218 75 264 1.0 3.0 0.00 0.00 0.00 90 1016.5
20260902030714 75 243 0.0 1.0 0.00 0.00 0.00 89 1016.4
20260902030214 76 251 0.0 1.0 0.00 0.00 0.00 89 1016.6
20260902025713 75 216 1.0 3.0 0.00 0.00 0.00 90 1016.3
20260902025208 75 258 3.0 3.0 0.00 0.00 0.00 91 1016.3
20260902024703 74 256 2.0 1.0 0.00 0.00 0.00 92 1016.3
20260902024158 74 256 1.0 1.0 0.00 0.00 0.00 93 1016.2
20260902023654 74 256 1.0 1.0 0.00 0.00 0.00 93 1016.2
20260902023149 74 255 1.0 1.0 0.00 0.00 0.00 93 1016.3
20260902022648 74 256 0.0 0.0 0.00 0.00 0.00 93 1016.2
20260902022144 74 256 0.0 0.0 0.00 0.00 0.00 92 1016.2
20260902021640 74 256 1.0 1.0 0.00 0.00 0.00 92 1016.3
20260902021134 74 256 0.0 0.0 0.00 0.00 0.00 91 1016.3
20260902020631 75 256 0.0 0.0 0.00 0.00 0.00 90 1016.1
20260902020126 75 256 0.0 0.0 0.00 0.00 0.00 89 1015.9
20260902015622 75 256 0.0 0.0 0.00 0.00 0.00 89 1016.2
20260902015118 75 256 0.0 0.0 0.00 0.00 0.00 89 1016.1
20260902014613 75 256 0.0 0.0 0.00 0.00 0.00 88 1016.1
20260902014109 75 256 0.0 0.0 0.00 0.00 0.00 87 1016.1
20260902013608 76 256 0.0 0.0 0.00 0.00 0.00 87 1016.1
20260902013104 76 256 0.0 0.0 0.00 0.00 0.00 86 1016.0
20260902012559 76 256 0.0 0.0 0.00 0.00 0.00 86 1016.1
20260902012054 76 256 0.0 0.0 0.00 0.00 0.00 86 1016.0
20260902011550 76 256 0.0 0.0 0.00 0.00 0.00 86 1015.9
20260902011049 77 256 0.0 0.0 0.00 0.00 0.00 85 1015.9
20260902010549 77 256 0.0 1.0 0.00 0.00 0.00 85 1015.8
20260902010045 77 256 0.0 0.0 0.00 0.00 0.00 84 1015.8
20260902005542 77 256 1.0 1.0 0.00 0.00 0.00 84 1015.7
20260902005039 77 302 0.0 1.0 0.00 0.00 0.00 83 1015.4
20260902004538 78 246 0.0 0.0 0.00 0.00 0.00 82 1015.5
20260902004033 78 246 0.0 3.0 0.00 0.00 0.00 81 1015.5
20260902003529 78 211 1.0 1.0 0.00 0.00 0.00 80 1015.5
20260902003024 79 140 0.0 0.0 0.00 0.00 0.00 80 1015.4
20260902002520 79 218 2.0 1.0 0.00 0.00 0.00 79 1015.5
20260902002015 79 214 0.0 0.0 0.00 0.00 0.00 79 1015.5
20260902001509 79 214 0.0 0.0 0.00 0.00 0.00 78 1015.4
20260902001004 80 209 0.0 0.0 0.00 0.00 0.00 77 1015.4
20260902000459 80 209 0.0 0.0 0.00 0.00 0.00 76 1015.5
20260901235954 80 210 1.0 3.0 0.00 0.00 0.00 75 1015.4
20260901235448 81 262 1.0 1.0 0.00 0.00 0.00 75 1015.5
20260901234944 81 262 0.0 1.0 0.00 0.00 0.00 74 1015.6
20260901234438 81 315 1.0 3.0 0.00 0.00 0.00 74 1015.7
20260901233933 81 282 2.0 4.0 0.00 0.00 0.00 74 1015.7
20260901233428 81 129 0.0 1.0 0.00 0.00 0.00 73 1015.8
20260901232925 82 273 0.0 1.0 0.00 0.00 0.00 73 1015.7
20260901232425 82 283 2.0 3.0 0.00 0.00 0.00 72 1015.9
20260901231920 82 281 1.0 5.0 0.00 0.00 0.00 72 1015.8
20260901231416 82 275 3.0 4.0 0.00 0.00 0.00 71 1015.9
20260901230912 82 274 4.0 7.0 0.00 0.00 0.00 72 1016.0
20260901230412 82 266 3.0 7.0 0.00 0.00 0.00 72 1016.1
20260901225907 82 249 0.0 4.0 0.00 0.00 0.00 72 1016.1